Regional Weather Roundup
Issued by NWS

Home | Current Version | Previous Version | Text Only | Print | Product List | Glossary Off
Versions: 1 2 3 4 5 6 7 8 9 10 11 12 13 14 15 16 17 18 19 20 21 22 23 24 25 26 27 28 29 30 31 32 33 34 35 36 37 38 39 40 41 42 43 44 45 46 47 48 49 50

000
ASUS45 KPSR 280610
RWRAZ

ARIZONA HOURLY REGIONAL WEATHER ROUNDUP
NATIONAL WEATHER SERVICE PHOENIX AZ
1100 PM MST MON MAR 27 2017

NOTE: FAIR INDICATES FEW OR NO CLOUDS BELOW 12,000 FEET WITH NO
SIGNIFICANT WEATHER AND/OR OBSTRUCTIONS TO VISIBILITY.

AZZ001>003-036-280700-
NORTHWEST ARIZONA

CITY           SKY/WX    TMP DP  RH WIND       PRES   REMARKS
BULLHEAD CITY  PTCLDY    66  34  30 N17       29.89R
KINGMAN        CLEAR     47  25  42 N6        29.94R
6HR MIN TEMP:  47; 6HR MAX TEMP:  65; 6HR PCP: TRACE;

$$

AZZ004>008-015-016-018-280700-
NORTH CENTRAL ARIZONA

CITY           SKY/WX    TMP DP  RH WIND       PRES   REMARKS
GRAND CANYON   MOCLDY    35  30  82 CALM      29.90F
6HR MIN TEMP:  33; 6HR MAX TEMP:  53; 6HR PCP: TRACE;

WILLIAMS       CLOUDY    34  30  86 NW3       29.92S
PRESCOTT       CLOUDY    40  38  93 SW7       29.91F
6HR MIN TEMP:  40; 6HR MAX TEMP:  60; 6HR PCP:  0.01;

FLAGSTAFF      CLOUDY    33  28  81 VRB3      29.91S
6HR MIN TEMP:  32; 6HR MAX TEMP:  42; 6HR PCP:  0.07;

PAYSON         MOCLDY    43  36  75 NW14      29.93R
PAGE           PTCLDY    50  32  50 W6        29.82S
6HR MIN TEMP:  50; 6HR MAX TEMP:  62;

$$

AZZ009>014-017-280700-
NORTHEAST ARIZONA

CITY           SKY/WX    TMP DP  RH WIND       PRES   REMARKS
WINSLOW        CLOUDY    46  41  82 S8        29.88S
6HR MIN TEMP:  46; 6HR MAX TEMP:  64; 6HR PCP:  0.05;

SAINT JOHNS    CLOUDY    47  30  51 W17       29.88R
6HR MIN TEMP:  38; 6HR MAX TEMP:  62; 6HR PCP:  0.01;

WINDOW ROCK    CLOUDY    38  32  79 W9        29.91S WCI  31
6HR MIN TEMP:  39; 6HR MAX TEMP:  55; 6HR PCP:  0.01;

SHOW LOW       LGT RAIN  39  32  75 SW14G28   29.93R WCI  31
$$

AZZ023-280700-
GREATER PHOENIX AREA

CITY           SKY/WX    TMP DP  RH WIND       PRES   REMARKS
PHOENIX        MOCLDY    70  30  22 NW18      29.78R
6HR MIN TEMP:  70; 6HR MAX TEMP:  80;

BUCKEYE        CLOUDY    66  34  30 N10G16    29.80R
LUKE AFB       MOCLDY    65  37  34 N10       29.79R
6HR MIN TEMP:  65; 6HR MAX TEMP:  80; 6HR PCP: TRACE;

DEER VALLEY    PTCLDY    61  38  42 N12       29.81R
6HR MIN TEMP:  61; 6HR MAX TEMP:  78; 6HR PCP: TRACE;

SCOTTSDALE     PTCLDY    63  37  38 N14G23    29.82R
6HR MIN TEMP:  63; 6HR MAX TEMP:  77; 6HR PCP: TRACE;

MESA-GATEWAY   PTCLDY    70  36  28 W7        29.78S
$$

AZZ027-028-280700-
SOUTHWEST MARICOPA COUNTY AND PINAL COUNTY

CITY           SKY/WX    TMP DP  RH WIND       PRES   REMARKS
CASA GRANDE    NOT AVBL
GILA BEND      LGT RAIN  68  34  28 NW18G33   29.78S
6HR MIN TEMP:  68; 6HR MAX TEMP:  80;

$$

AZZ503-504-507>509-280700-
SOUTHEAST ARIZONA

CITY           SKY/WX    TMP DP  RH WIND       PRES   REMARKS
TUCSON         CLEAR     64  32  30 NW6       29.87R
6HR MIN TEMP:  64; 6HR MAX TEMP:  79;

DAVIS-MONTHAN  CLEAR     64  32  30 W10       29.85S
6HR MIN TEMP:  64; 6HR MAX TEMP:  78;

NOGALES        CLEAR     57  33  40 SW7       29.90S
6HR MIN TEMP:  56; 6HR MAX TEMP:  73;

SIERRA VISTA   CLEAR     56  31  38 N6G18     29.91S
6HR MIN TEMP:  56; 6HR MAX TEMP:  70;

DOUGLAS        CLEAR     60  31  33 SW16      29.87F
6HR MIN TEMP:  56; 6HR MAX TEMP:  74;

SAFFORD        CLOUDY    63  32  31 NW15G24   29.79R
6HR MIN TEMP:  62; 6HR MAX TEMP:  74;

$$

AZZ020-021-025-026-031-280700-
SOUTHWEST ARIZONA

CITY           SKY/WX    TMP DP  RH WIND       PRES   REMARKS
YUMA           PTCLDY    67  42  40 NW12      29.85R
6HR MIN TEMP:  66; 6HR MAX TEMP:  80;

$$

CAZ031-033-041-043-047-048-061-280700-
SOUTHERN CALIFORNIA

CITY           SKY/WX    TMP DP  RH WIND       PRES   REMARKS
DOWNTOWN L.A.  CLEAR     64  34  32 CALM      29.99R
6HR MIN TEMP:  64; 6HR MAX TEMP:  74;

L.A. AIRPORT   CLEAR     64  35  34 NW10G23   30.00R
6HR MIN TEMP:  62; 6HR MAX TEMP:  68;

SAN DIEGO      MOCLDY    61  53  75 SW5       30.04R
6HR MIN TEMP:  61; 6HR MAX TEMP:  65;

BURBANK        CLEAR     61  33  35 W12       30.01R
6HR MIN TEMP:  61; 6HR MAX TEMP:  69;

ONTARIO        CLEAR     58  38  47 S6        29.99R
6HR MIN TEMP:  57; 6HR MAX TEMP:  69;

RIVERSIDE      CLEAR     56  47  71 CALM      30.00R
6HR MIN TEMP:  55; 6HR MAX TEMP:  70;

PALM SPRINGS   CLEAR     68  33  27 SE3       29.93R
6HR MIN TEMP:  68; 6HR MAX TEMP:  79;

EL CENTRO NAS  PTCLDY    66  37  34 W17       29.90R
6HR MIN TEMP:  65; 6HR MAX TEMP:  81;

IMPERIAL       CLEAR     64  42  44 W16       29.87R
6HR MIN TEMP:  63; 6HR MAX TEMP:  79;

BLYTHE         PTCLDY    71  29  21 N22       29.84R
6HR MIN TEMP:  70; 6HR MAX TEMP:  82;

NEEDLES        PTCLDY    68  36  30 NE16      29.90R
6HR MIN TEMP:  67; 6HR MAX TEMP:  82; 6HR PCP: TRACE;

$$

NVZ020-UTZ003-280700-
SOUTHERN NEVADA-UTAH

CITY           SKY/WX    TMP DP  RH WIND       PRES   REMARKS
LAS VEGAS      PTCLDY    60  26  27 N17G28    29.96R
6HR MIN TEMP:  58; 6HR MAX TEMP:  71;

SALT LAKE CITY MOCLDY    41  35  79 N14       29.99R
6HR MIN TEMP:  41; 6HR MAX TEMP:  45; 6HR PCP:  0.01;

$$

NMZ009-TXZ055-280700-
NEW MEXICO-WEST TEXAS

CITY           SKY/WX    TMP DP  RH WIND       PRES   REMARKS
ALBUQUERQUE    MOCLDY    52  38  58 CALM      29.86F
6HR MIN TEMP:  52; 6HR MAX TEMP:  67; 6HR PCP: TRACE;

EL PASO        MOCLDY    70  26  19 NW8       29.81R
6HR MIN TEMP:  70; 6HR MAX TEMP:  79;

$$


........................KEY........................
SKY/WX - SKY CONDITION/WEATHER
TMP    - TEMPERATURE IN FAHRENHEIT
DP     - DEW POINT IN FAHRENHEIT
RH     - RELATIVE HUMIDITY IN PERCENT
WIND   - DIRECTION AND SPEED IN MILES PER HOUR (MPH)
VRB    - VARIABLE WIND DIRECTION
PRES   - MEAN SEA LEVEL PRESSURE IN INCHES OF MERCURY
         F - FALLING PRESSURE   R - RISING PRESSURE
         S - STEADY PRESSURE
VSB    - VISIBILITY IN MILES
HX     - HEAT INDEX IN FAHRENHEIT
WCI    - WIND CHILL INDEX IN FAHRENHEIT
TC     - TEMPERATURE IN CELSIUS WHICH IS ALSO KNOWN AS
         TEMPERATURE IN CENTIGRADE
AFB    - AIR FORCE BASE
         LUKE AFB IS LUKE AIR FORCE BASE
         DAVIS-MONTHAN IS DAVIS-MONTHAN AIR FORCE BASE
NAS    - NAVAL AIR STATION
         EL CENTRO NAS IS EL CENTRO NAVAL AIR STATION
N/A    - NOT AVAILABLE




USA.gov is the U.S. government's official web portal to all federal, state and local government web resources and services.